Location: Basses Si�yes
(44.0835°N, 6.2037°E)
Time: 22:33:07
(UTC+00:00)

Meteor 1-19 Rocket - Pass Details

Date: 27 February 2020
Orbit: 813 x 921 km, 81.2° (Epoch: 05 April)

Event Time Altitude Azimuth Distance (km) Brightness Sun altitude
Rises 19:02:11 0° 347° (NNW) 3,499 7.7 -19.1°
Reaches altitude 10° 19:04:40 10° 346° (NNW) 2,540 6.9 -19.5°
Maximum altitude 19:10:25 73° 263° (W) 897 4.4 -20.5°
Drops below altitude 10° 19:15:57 10° 179° (S) 2,450 6.5 -21.5°
Sets 19:18:19 0° 178° (S) 3,366 7.2 -21.9°
